Temp
8 9 10 11 11 12 13 13 12 13 13 14 14 14 14 15 16 19 22 24 24 22 22 24 26 28 29 30 32 32 31 32 34 35 36 36 34 36 36 36 35 36 36 35 34
8 8 8 10 10 11 11 12 12 13 13 13 14 14 14 15 16 21 23 22 22 22 22 25 28 29 30 31 32 31 31 33 36 36 35 35 34 36 34 34 35 34 35 33 33
8 7 8 9 10 10 10 11 11 12 13 14 14 14 14 15 20 23 20 21 21 22 21 25 26 28 29 31 31 31 31 34 35 35 34 35 35 35 34 34 35 34 34 34 34
8 7 7 7 8 9 9 10 11 11 12 13 14 13 14 16 21 22 20 20 20 21 23 25 27 27 28 29 32 30 32 33 34 34 33 33 34 34 35 34 36 35 35 34 34
8 8 7 7 7 8 9 10 10 11 11 12 13 13 14 18 21 20 20 20 21 23 25 27 27 28 28 30 31 31 31 32 33 33 33 33 33 33 33 35 35 35 34 34 34
7 8 8 7 7 8 9 9 10 10 11 11 12 12 14 18 21 22 21 21 21 23 25 26 27 29 29 29 30 31 31 31 32 33 32 31 32 33 33 34 34 34 34 34 34
7 7 7 7 7 8 8 9 9 10 10 11 11 11 13 17 21 21 21 21 21 22 24 25 26 27 28 27 29 29 29 30 31 32 31 32 30 31 33 34 34 34 34 34 34
7 7 7 7 7 8 8 8 9 10 10 11 11 11 13 16 18 20 21 21 20 20 21 23 24 25 26 28 28 27 28 28 31 32 32 30 29 33 34 34 34 34 34 34 34
7 7 7 7 7 7 8 8 9 10 10 10 11 11 13 15 17 19 20 21 22 21 22 22 24 24 25 25 25 27 27 28 30 32 33 32 30 32 34 34 34 34 34 34 33
7 7 7 7 7 7 8 9 10 10 11 12 13 12 13 16 19 19 20 20 22 23 23 23 23 23 24 26 24 26 28 28 29 32 32 31 31 32 33 34 34 34 34 34 34
7 7 7 7 6 7 8 11 13 13 14 16 17 15 21 18 19 19 20 20 21 22 21 24 23 23 25 26 27 27 28 29 30 31 30 30 30 31 33 33 33 33 33 34 33
6 7 7 7 7 7 8 13 10 7 12 16 17 18 18 20 19 21 20 21 21 21 22 23 22 25 26 27 26 26 26 27 29 30 29 30 29 30 32 32 33 33 33 33 34
5 6 6 6 7 8 10 11 11 11 11 15 17 17 20 19 17 20 21 21 21 21 22 22 24 25 26 26 25 26 26 26 26 28 29 29 28 29 30 31 32 33 34 34 33
4 5 6 6 7 10 10 10 10 10 11 14 16 18 19 20 17 20 21 22 22 22 23 24 25 25 25 25 26 25 27 27 26 26 26 29 28 29 32 33 33 33 33 33 33
4 5 6 7 9 10 9 10 10 10 10 17 18 20 20 19 20 19 21 21 21 22 22 22 24 24 25 26 26 25 27 27 26 25 25 26 27 28 31 31 32 34 34 33 33
5 6 5 6 8 9 10 9 10 8 9 16 19 18 19 19 19 22 20 21 22 22 22 23 26 25 25 26 27 27 26 26 25 25 23 26 26 28 29 30 31 33 33 33 32
5 5 5 8 9 9 8 9 8 8 14 15 17 18 18 19 19 20 20 18 17 16 18 21 22 25 26 24 26 26 25 22 20 22 23 26 26 29 29 31 32 31 33 32 32
5 5 6 7 8 7 8 8 7 10 11 16 16 15 15 17 18 19 18 19 18 19 20 19 20 22 25 25 24 25 25 22 19 21 24 27 24 28 30 31 32 32 32 32 31
5 5 5 6 6 7 8 6 8 11 13 14 14 13 10 12 15 15 17 18 20 18 18 20 21 25 24 25 25 24 23 25 23 24 24 26 28 29 29 30 31 30 30 30 31
6 6 7 7 6 6 6 7 8 11 13 13 10 12 13 15 14 15 14 18 19 19 19 20 20 24 24 25 25 24 25 22 21 18 18 23 25 27 29 30 30 30 30 30 31
5 5 7 6 6 6 6 7 9 11 12 11 11 11 11 10 9 9 12 17 18 19 19 18 18 20 24 23 23 24 23 23 23 21 20 21 24 28 28 28 29 29 30 30 30
5 5 6 5 5 6 6 7 9 10 12 11 11 11 11 11 10 9 9 9 7 11 16 19 17 17 20 23 26 24 23 23 18 16 18 20 22 28 28 28 29 29 30 30 30
4 5 5 6 5 6 6 7 9 9 10 10 10 11 12 11 9 10 11 12 11 6 7 8 10 15 16 20 23 22 24 24 23 19 16 17 19 25 25 26 27 28 29 30 30
4 5 4 4 7 7 6 6 6 9 10 11 11 11 11 10 10 8 10 12 12 11 9 6 9 12 17 19 21 21 22 22 24 18 19 19 21 25 26 26 28 28 28 29 29
5 4 7 5 4 6 8 7 7 7 9 10 10 11 10 9 9 9 11 12 13 13 11 7 8 10 10 15 20 22 22 22 21 23 20 21 22 25 26 26 28 28 28 28 28
4 5 8 8 9 8 8 7 7 9 9 8 9 10 11 9 11 9 11 12 11 13 9 7 8 8 9 14 17 18 22 23 22 22 23 23 23 26 27 27 27 28 28 26 25
5 7 7 8 8 8 8 8 8 9 10 11 10 10 10 11 11 11 11 11 10 9 9 7 8 8 9 13 12 13 17 22 20 22 23 23 24 26 26 26 27 27 27 25 24
Height
799 798 796 796 795 795 795 796 797 797 797 796 796 795 795 793 790 789 783 779 778 778 779 779 775 770 767 760 754 752 763 758 743 739 731 718 735 724 721 726 727 728 728 731 736
798 797 795 794 793 793 793 793 793 793 794 794 794 794 793 792 789 781 776 775 776 776 778 774 769 764 762 756 751 757 758 748 723 719 728 724 732 725 737 733 732 733 731 737 739
796 795 794 792 792 791 790 790 790 789 790 791 792 792 792 792 785 766 769 770 771 771 773 771 769 765 762 751 747 748 756 732 725 725 727 727 727 723 730 737 726 731 731 732 736
794 793 793 791 790 790 788 787 787 787 787 788 789 790 791 792 783 765 768 769 769 769 769 767 765 765 763 757 742 752 740 734 729 724 735 737 726 726 724 728 717 722 724 728 732
791 790 790 789 788 787 786 785 785 784 784 784 785 788 790 785 770 768 769 769 769 768 763 760 759 757 758 749 742 742 737 732 728 730 731 730 731 729 727 719 718 723 725 728 728
789 788 787 786 787 786 783 782 782 782 781 782 782 784 786 774 766 767 767 769 768 766 762 759 754 749 748 745 743 734 733 732 730 726 731 736 731 728 724 718 718 719 720 721 721
786 785 785 784 783 782 780 780 779 779 778 778 779 780 777 762 761 763 765 765 767 765 761 758 756 753 747 753 741 739 745 735 729 726 728 728 734 729 717 712 714 713 714 714 715
783 782 782 781 781 779 777 777 777 777 776 776 777 777 763 760 760 760 761 762 763 764 763 760 759 755 752 746 744 750 743 747 724 721 721 733 735 714 708 710 710 708 707 709 711
780 780 780 779 779 778 776 775 772 773 773 775 775 774 760 753 753 754 757 757 759 761 760 761 759 756 751 757 757 747 748 736 728 709 710 716 726 713 703 698 700 701 704 704 707
776 777 777 777 777 776 773 771 769 769 769 771 770 774 753 744 744 747 750 753 754 755 756 755 754 756 751 745 749 744 737 731 731 709 706 716 712 707 701 695 695 696 699 699 701
773 775 774 775 776 774 772 768 765 761 757 743 739 737 720 734 738 738 740 745 749 751 749 743 755 742 729 729 727 726 726 721 711 705 713 714 712 705 695 694 696 697 694 692 698
771 772 772 774 774 772 770 762 765 768 753 742 736 730 730 730 730 729 735 737 740 734 741 746 737 711 724 721 726 731 734 728 715 707 714 712 710 703 697 691 687 688 690 691 689
769 771 771 772 772 771 767 764 763 763 756 735 728 726 720 727 727 723 725 724 723 728 723 725 702 717 718 720 726 722 725 725 726 714 708 713 714 706 695 689 684 679 678 679 683
768 769 770 771 773 765 764 764 765 765 749 725 714 707 714 715 719 720 716 718 717 713 712 709 700 707 711 716 713 717 706 715 724 728 728 707 711 693 680 673 669 671 673 674 678
768 769 769 769 766 765 767 765 765 763 748 698 696 693 694 706 696 700 709 713 705 703 708 706 700 706 706 698 701 705 703 708 714 724 725 718 717 679 678 677 667 659 658 662 669
767 768 769 769 767 764 765 766 765 766 738 698 684 688 691 694 694 689 699 707 702 704 702 693 683 687 690 687 692 692 706 708 711 717 733 705 712 668 683 675 667 660 654 658 668
765 766 767 765 763 764 767 767 766 751 710 700 686 684 687 685 691 693 692 702 712 718 711 693 689 680 682 693 688 693 705 725 738 722 713 690 706 663 667 655 649 659 651 652 659
763 765 765 765 765 766 767 766 759 731 726 690 693 700 693 690 684 688 693 692 696 697 693 699 697 687 673 671 681 687 689 712 735 718 698 675 701 674 654 648 648 649 650 649 655
763 763 763 763 765 767 766 761 745 732 719 710 706 709 720 709 697 699 689 688 677 693 693 682 674 664 664 663 672 679 686 677 694 684 688 675 658 652 652 646 642 649 650 652 651
761 762 758 759 764 767 767 753 744 732 725 718 734 715 703 691 694 691 695 679 675 679 685 671 670 649 656 659 661 667 668 695 695 724 722 689 670 663 648 643 640 643 643 646 645
762 761 754 758 764 765 757 748 740 736 732 731 724 725 717 721 724 720 700 679 675 674 676 682 683 664 650 649 658 660 669 669 669 687 699 692 669 642 639 641 643 639 635 639 641
761 758 754 758 761 758 752 748 744 735 729 730 727 722 722 718 723 725 719 716 722 709 678 666 673 670 658 642 631 643 647 658 688 708 694 682 668 628 628 630 630 632 629 629 634
759 757 758 758 752 749 748 745 739 735 730 728 725 723 718 717 728 720 707 703 710 729 734 727 701 676 667 655 638 635 633 633 649 674 689 691 675 624 635 634 631 634 626 616 622
759 754 757 757 746 741 744 743 744 734 729 724 721 719 717 717 718 728 715 706 708 714 724 737 712 683 644 634 632 631 630 638 629 660 661 658 654 630 619 629 625 624 622 621 618
753 748 740 746 748 742 737 734 733 732 726 721 717 713 714 719 718 719 706 695 695 698 713 725 711 698 684 655 629 619 620 621 629 625 645 643 639 621 611 620 616 612 613 618 622
748 743 733 729 724 728 727 728 726 719 719 722 716 709 707 709 704 705 697 692 689 685 707 717 712 701 693 656 641 625 604 601 612 619 616 617 621 607 597 608 607 607 610 620 626
739 735 735 724 720 717 716 716 714 712 709 705 705 704 703 701 699 700 695 691 693 699 699 710 706 702 685 657 655 641 619 597 611 605 606 608 601 594 598 599 594 601 604 615 623
Wind_Speed
11 10 10 10 11 11 12 16 15 13 13 13 13 13 14 15 18 18 18 15 6 8 10 13 15 15 16 16 16 11 14 14 19 16 11 8 9 8 4 8 6 7 4 8 5
12 12 11 8 10 13 12 12 13 15 13 12 12 13 13 13 17 24 26 20 21 24 17 17 15 15 13 16 13 15 13 20 16 10 9 5 13 14 9 13 8 9 6 5 6
12 12 12 10 8 8 12 12 12 13 15 13 12 11 10 8 17 30 9 7 10 18 21 19 16 17 18 20 18 18 19 19 16 8 12 15 13 14 9 15 13 12 12 11 10
13 12 11 10 10 9 10 11 13 13 11 15 13 10 8 7 7 7 12 7 7 5 15 19 17 18 20 21 21 21 22 18 21 9 13 16 16 16 15 16 9 6 6 8 11
14 13 10 10 10 11 11 10 11 13 12 13 12 11 5 12 16 4 8 4 4 3 12 14 18 19 22 21 21 23 21 21 18 18 17 16 19 17 17 17 14 13 15 14 15
15 12 9 10 10 11 10 11 11 10 12 10 12 13 13 24 17 20 16 13 12 9 10 11 15 17 20 21 22 19 21 21 24 19 18 20 20 19 20 21 18 18 18 16 15
16 13 10 11 11 11 11 10 11 11 10 13 9 15 13 21 8 11 18 21 19 16 12 10 11 13 8 17 20 20 23 22 22 21 21 17 24 24 22 20 19 17 18 16 15
18 13 12 11 10 10 10 11 10 10 10 9 10 16 9 13 34 19 11 10 11 15 15 14 9 13 17 15 18 14 20 22 24 23 20 18 26 22 25 24 24 22 16 16 14
17 15 12 10 9 10 11 12 12 11 10 6 8 7 8 13 22 26 33 24 12 11 14 14 14 16 14 17 17 20 20 25 25 23 22 26 27 21 24 21 20 18 19 16 14
15 13 12 10 9 9 12 11 9 9 10 12 13 3 11 10 14 30 26 26 21 13 13 16 11 14 17 17 21 21 23 23 24 18 19 24 25 21 22 17 19 20 20 18 14
12 11 8 9 7 8 10 9 6 8 21 18 12 19 5 23 14 23 29 23 23 21 26 18 16 25 32 27 25 22 23 25 22 19 23 19 21 20 20 22 19 17 20 18 15
11 10 7 7 7 7 8 8 8 3 9 24 27 25 36 6 11 15 26 21 23 30 25 23 27 36 27 27 26 25 26 26 24 17 19 21 24 22 23 24 22 22 22 22 20
8 6 7 7 5 8 9 8 9 9 7 17 24 29 24 26 22 18 21 27 27 29 31 32 40 26 28 28 28 29 28 27 26 21 23 23 26 29 27 28 27 26 24 22 23
6 6 8 5 6 9 10 2 4 6 6 13 22 21 29 27 25 26 27 22 21 29 31 31 34 31 29 31 29 29 30 26 24 21 22 21 23 26 23 25 28 29 28 24 24
5 6 8 8 7 6 1 2 6 5 6 7 24 10 23 37 19 34 27 26 27 25 15 28 32 31 34 34 30 33 23 24 25 23 24 26 19 26 21 22 22 21 13 19 21
9 8 7 7 10 9 3 7 6 6 10 6 4 24 22 31 39 18 36 27 21 24 20 29 26 25 36 34 30 25 22 26 21 20 18 29 24 31 23 25 24 24 23 18 18
11 8 8 6 3 3 8 6 6 10 6 7 9 13 22 24 34 36 30 31 23 20 27 31 33 30 24 25 29 31 23 15 14 16 21 31 24 29 17 16 14 17 21 16 17
10 8 8 9 7 4 7 7 12 5 21 11 11 16 19 23 25 29 31 29 32 31 20 28 28 32 32 35 28 26 29 14 16 18 22 29 22 25 26 31 30 25 16 10 14
7 9 7 12 10 7 4 10 11 15 17 19 17 14 11 10 18 19 30 30 30 30 34 26 38 27 37 34 31 28 26 30 28 24 16 19 20 35 30 30 24 12 13 15 17
9 7 12 12 13 9 5 14 8 14 20 21 8 8 16 7 19 20 16 23 33 29 32 33 27 29 35 32 34 30 23 22 18 19 26 23 26 19 22 26 27 25 23 20 20
6 3 3 14 13 5 9 12 12 16 17 16 21 23 24 13 9 10 9 16 24 32 29 32 28 29 27 29 31 25 25 25 18 20 15 19 20 24 26 23 25 25 22 17 18
2 3 8 17 7 4 10 9 6 19 12 14 19 23 23 22 22 14 9 12 16 16 27 33 15 25 36 31 27 35 27 31 17 7 17 18 16 15 17 9 13 14 25 20 21
2 3 4 14 6 11 8 10 15 19 19 18 21 22 23 23 14 18 15 6 7 7 9 11 6 23 29 28 34 29 30 28 28 15 15 13 18 31 26 28 26 25 22 16 19
3 3 2 3 10 13 13 15 14 12 17 20 21 20 21 21 17 12 21 15 8 15 21 5 6 13 25 31 27 35 34 34 29 22 24 24 28 33 33 26 22 22 22 20 18
4 6 7 5 10 17 19 12 14 17 17 17 14 20 20 19 17 19 24 27 26 22 11 6 10 17 19 27 33 35 37 31 31 29 27 32 34 34 33 26 25 20 15 18 15
4 4 8 12 15 18 19 18 23 21 17 17 17 18 19 18 20 18 22 20 21 14 5 3 8 14 22 20 26 37 34 34 35 34 34 36 33 33 36 27 28 25 21 16 17
11 16 7 9 16 15 15 19 20 22 21 22 22 21 20 20 19 19 19 21 19 15 13 6 4 7 20 18 17 15 33 32 29 29 30 31 34 34 32 30 29 25 20 20 19
Wind_Direction
320 318 298 290 275 265 255 253 260 268 274 279 278 282 288 297 301 288 262 271 281 249 279 280 273 255 242 250 241 246 258 247 245 229 245 133 220 185 335 288 201 194 296 72 100
317 315 310 300 286 276 271 260 260 254 263 279 279 279 286 304 302 279 265 258 257 262 263 252 262 251 243 237 223 235 234 246 257 268 240 181 227 215 214 232 207 210 220 181 199
303 309 307 301 286 284 271 270 264 262 246 256 273 275 281 307 288 266 206 210 257 251 236 248 257 269 256 250 230 229 246 262 255 282 278 276 221 243 233 246 211 222 211 208 221
289 300 301 298 290 283 278 274 268 264 260 242 251 260 262 262 248 109 152 110 44 219 218 227 231 240 246 246 239 241 250 254 265 261 237 249 259 253 232 249 276 243 240 244 251
284 295 297 296 295 288 287 286 281 267 263 247 234 230 219 224 239 196 200 266 327 253 221 221 225 230 241 245 252 242 249 256 243 260 255 257 256 253 255 250 250 240 250 251 259
279 285 294 298 292 290 287 286 282 285 260 263 236 209 227 243 246 242 241 253 260 267 256 240 237 244 257 252 256 266 260 253 258 244 247 251 255 254 248 252 252 247 247 244 248
271 276 278 286 298 297 289 282 280 276 274 250 254 214 227 231 232 238 240 245 252 266 258 248 257 253 245 260 264 266 263 266 254 252 241 243 252 244 250 252 239 232 231 245 252
263 262 268 274 291 300 295 283 273 268 265 260 242 219 251 237 242 238 217 220 235 236 246 264 262 255 249 267 279 257 252 252 247 238 231 235 255 244 233 247 244 244 244 239 243
258 258 255 257 279 292 296 292 272 258 249 249 230 210 253 218 228 227 229 237 226 230 228 241 245 243 240 231 249 243 251 243 248 250 242 222 245 250 258 256 236 247 233 232 230
255 259 254 248 267 290 305 299 268 253 219 226 231 187 240 214 212 222 224 222 228 218 217 216 223 233 228 224 229 231 241 241 258 265 229 242 248 241 267 262 246 221 240 229 223
247 255 256 239 256 294 320 278 211 208 222 208 199 228 88 216 208 206 208 207 217 229 229 203 218 226 223 224 245 252 256 256 251 234 259 244 254 262 256 242 228 244 237 224 225
239 241 240 221 252 289 293 271 67 2 285 230 253 225 237 209 220 223 209 203 201 215 217 225 223 229 231 239 237 242 252 255 263 262 268 266 262 262 257 258 252 240 229 246 237
260 240 233 214 258 273 255 275 326 312 255 250 237 237 231 228 234 215 199 202 208 215 214 216 228 226 231 232 235 238 237 242 252 258 248 255 267 260 255 255 257 254 248 243 242
260 221 215 205 248 243 244 222 312 314 262 251 218 239 221 226 227 224 204 208 222 220 222 225 235 235 222 234 233 237 233 245 249 258 255 247 264 263 259 249 233 234 238 236 240
238 236 221 213 317 240 74 259 311 248 254 203 221 228 203 206 203 209 201 223 228 213 213 227 235 234 238 231 225 244 244 243 244 244 257 255 259 262 267 269 263 262 241 240 228
212 210 205 222 243 260 280 285 273 232 232 268 187 212 206 202 218 216 206 214 228 245 232 242 233 229 230 240 241 241 240 246 250 247 250 245 241 264 257 262 261 258 250 229 236
217 217 213 257 270 206 238 244 219 232 308 248 220 201 215 208 219 215 215 212 211 219 228 231 235 240 226 239 236 234 226 228 227 230 235 240 235 250 266 236 287 260 267 218 231
211 209 216 230 227 191 206 214 233 250 241 292 328 328 264 221 231 226 221 230 212 224 221 231 235 226 228 230 227 222 223 220 227 223 235 242 234 248 249 247 254 248 260 259 222
203 214 220 224 207 208 219 222 239 246 259 270 301 295 294 286 226 228 230 227 225 211 227 232 237 237 223 231 228 232 221 224 240 257 262 270 257 226 246 266 274 250 253 256 244
215 225 231 209 190 187 213 238 239 253 270 275 288 281 294 300 231 216 223 227 231 223 220 241 260 235 234 219 228 228 232 224 229 245 246 247 249 250 243 238 237 242 233 234 245
222 242 238 182 171 195 232 233 253 256 279 279 275 266 271 307 354 345 303 220 223 232 229 233 247 256 264 224 213 222 221 235 239 213 238 244 245 238 254 258 268 274 274 230 246
202 231 178 158 190 212 235 241 266 275 270 256 263 274 267 272 282 294 293 319 15 333 246 231 237 243 245 254 240 220 219 217 226 226 229 233 244 243 246 233 228 263 253 236 239
218 249 184 199 226 223 242 256 264 263 259 259 258 256 267 273 282 270 271 228 357 41 22 6 302 241 251 241 255 250 227 220 219 207 217 216 233 251 252 259 267 273 276 243 225
180 224 162 232 245 253 246 237 237 253 259 262 261 264 270 277 274 266 276 280 259 274 301 266 253 275 241 228 227 236 235 221 229 219 228 227 245 255 256 255 260 252 244 258 236
214 233 200 203 231 242 250 253 251 244 254 264 261 251 253 259 263 265 274 275 273 269 266 216 269 295 311 278 257 233 231 229 241 226 223 236 235 247 257 251 255 245 253 249 230
199 217 244 249 247 225 234 242 247 254 250 252 263 258 260 261 261 269 271 281 286 290 184 192 269 306 297 294 258 253 240 229 217 231 233 235 240 241 251 257 250 255 239 216 218
235 251 258 260 252 256 244 238 244 253 262 259 260 264 265 273 284 293 284 280 271 268 263 213 257 276 278 290 310 270 246 233 240 253 239 232 238 243 248 251 253 254 257 204 210